TURKSAT 6A

Last updated on Tue Sep 16 2025 00:02:51 GMT+0000 (Coordinated Universal Time)

1 60233U 24127A 25258.59289598 .00000129 00000+0 00000+0 0 9997 2 60233 0.0363 202.8662 0004987 7.1598 40.1997 1.00272972 4264
UTC large
Height (km)
Speed (km/s)
/
Latitude / Longitude
Inclination (degrees)
Orbital Period (minutes)
Azimuth
Elevation
Range (km)
Doppler Factor

Next 0 passes for location: London (51.5072 / 0.1276)

Sorry there are no passes over London.